TimeEST,TemperatureF,Dew PointF,Humidity,Sea Level PressureIn,VisibilityMPH,Wind Direction,Wind SpeedMPH,Gust SpeedMPH,PrecipitationIn,Events,Conditions,WindDirDegrees,DateUTC
12:15 AM,33.8,26.6,75,29.99,10.0,NNW,6.9,-,N/A,,Overcast,330,2014-03-03 05:15:00
12:35 AM,33.8,24.8,70,29.99,10.0,NNW,9.2,-,N/A,,Overcast,340,2014-03-03 05:35:00
12:55 AM,33.8,21.2,60,29.98,10.0,North,11.5,-,N/A,,Overcast,350,2014-03-03 05:55:00
1:15 AM,32.0,19.4,60,30.00,10.0,NNW,10.4,-,N/A,,Overcast,340,2014-03-03 06:15:00
1:35 AM,32.0,17.6,55,30.00,10.0,NNW,12.7,-,N/A,,Overcast,330,2014-03-03 06:35:00
1:55 AM,30.2,17.6,60,30.01,8.0,NNW,16.1,-,N/A,,Overcast,330,2014-03-03 06:55:00
2:15 AM,28.4,19.4,69,30.01,5.0,NNW,13.8,-,N/A,,Overcast,330,2014-03-03 07:15:00
2:35 AM,26.6,19.4,74,30.00,4.0,NNW,12.7,-,N/A,,Overcast,340,2014-03-03 07:35:00
2:55 AM,26.6,19.4,74,30.01,2.5,NNW,11.5,-,N/A,,Overcast,330,2014-03-03 07:55:00
3:15 AM,26.6,19.4,74,30.02,3.0,NNW,11.5,17.3,N/A,,Overcast,330,2014-03-03 08:15:00
3:35 AM,26.6,19.4,74,30.02,3.0,NNW,10.4,-,N/A,,Overcast,330,2014-03-03 08:35:00
3:55 AM,24.8,19.4,80,30.02,3.0,NW,10.4,-,0.01,,Overcast,320,2014-03-03 08:55:00
4:15 AM,24.8,17.6,74,30.03,2.5,NNW,11.5,-,N/A,,Overcast,330,2014-03-03 09:15:00
4:35 AM,24.8,17.6,74,30.03,2.0,NNW,11.5,17.3,N/A,,Overcast,330,2014-03-03 09:35:00
4:55 AM,24.8,17.6,74,30.04,2.0,NNW,12.7,17.3,0.01,,Overcast,340,2014-03-03 09:55:00
5:15 AM,24.8,17.6,74,30.04,2.0,North,15.0,-,N/A,,Overcast,350,2014-03-03 10:15:00
5:35 AM,23.0,15.8,74,30.06,3.0,NNW,11.5,-,N/A,,Overcast,340,2014-03-03 10:35:00
5:55 AM,23.0,15.8,74,30.08,3.0,NNW,13.8,17.3,N/A,,Overcast,330,2014-03-03 10:55:00
6:15 AM,21.2,15.8,80,30.08,1.5,NNW,15.0,-,N/A,,Overcast,340,2014-03-03 11:15:00
6:35 AM,21.2,14.0,74,30.09,1.5,NNW,16.1,-,N/A,,Overcast,330,2014-03-03 11:35:00
6:55 AM,19.4,12.2,74,30.10,1.2,NNW,10.4,-,N/A,,Overcast,340,2014-03-03 11:55:00
7:15 AM,19.4,12.2,74,30.11,1.2,North,15.0,20.7,N/A,,Overcast,350,2014-03-03 12:15:00
7:35 AM,19.4,10.4,68,30.14,1.0,North,15.0,23.0,N/A,,Overcast,350,2014-03-03 12:35:00
7:55 AM,17.6,10.4,73,30.15,0.8,North,8.1,-,N/A,,Overcast,360,2014-03-03 12:55:00
8:15 AM,19.4,12.2,74,30.15,1.0,NNW,12.7,-,0.01,,Overcast,330,2014-03-03 13:15:00
8:35 AM,17.6,10.4,73,30.15,1.2,NNW,10.4,-,0.01,,Overcast,330,2014-03-03 13:35:00
8:55 AM,17.6,10.4,73,30.17,3.0,NNW,9.2,-,0.01,,Overcast,330,2014-03-03 13:55:00
9:15 AM,17.6,10.4,73,30.17,2.5,WNW,4.6,-,N/A,,Overcast,290,2014-03-03 14:15:00
9:35 AM,17.6,10.4,73,30.16,9.0,West,5.8,-,N/A,,Overcast,270,2014-03-03 14:35:00
9:55 AM,19.4,10.4,68,30.15,10.0,WNW,6.9,-,0.01,,Overcast,300,2014-03-03 14:55:00
10:15 AM,19.4,5.0,54,30.14,10.0,NNW,10.4,-,N/A,,Overcast,330,2014-03-03 15:15:00
10:35 AM,19.4,3.2,49,30.16,10.0,North,15.0,-,N/A,,Overcast,350,2014-03-03 15:35:00
10:55 AM,19.4,3.2,49,30.16,10.0,NNW,13.8,-,N/A,,Overcast,330,2014-03-03 15:55:00
11:15 AM,19.4,3.2,49,30.16,10.0,NNW,13.8,-,N/A,,Overcast,340,2014-03-03 16:15:00
11:35 AM,19.4,3.2,49,30.17,10.0,NW,15.0,-,N/A,,Overcast,320,2014-03-03 16:35:00
11:55 AM,19.4,3.2,49,30.16,10.0,North,11.5,19.6,N/A,,Overcast,350,2014-03-03 16:55:00
12:15 PM,21.2,1.4,42,30.18,10.0,NNW,13.8,-,N/A,,Overcast,340,2014-03-03 17:15:00
12:35 PM,19.4,1.4,46,30.17,10.0,NNW,15.0,18.4,N/A,,Overcast,340,2014-03-03 17:35:00
12:55 PM,19.4,1.4,46,30.15,10.0,NNW,16.1,-,N/A,,Overcast,330,2014-03-03 17:55:00
1:15 PM,19.4,-0.4,42,30.15,10.0,NNW,13.8,-,N/A,,Overcast,340,2014-03-03 18:15:00
1:35 PM,19.4,-0.4,42,30.14,10.0,NNW,11.5,-,N/A,,Overcast,340,2014-03-03 18:35:00
1:55 PM,19.4,1.4,46,30.15,10.0,NNW,12.7,21.9,N/A,,Mostly Cloudy,330,2014-03-03 18:55:00
2:15 PM,21.2,1.4,42,30.18,10.0,NW,15.0,-,N/A,,Mostly Cloudy,320,2014-03-03 19:15:00
2:35 PM,21.2,1.4,42,30.18,10.0,NNW,11.5,-,N/A,,Overcast,340,2014-03-03 19:35:00
2:55 PM,21.2,1.4,42,30.18,10.0,North,11.5,-,N/A,,Overcast,350,2014-03-03 19:55:00
3:15 PM,19.4,-0.4,42,30.18,10.0,NNW,13.8,-,N/A,,Overcast,340,2014-03-03 20:15:00
3:35 PM,19.4,1.4,46,30.18,10.0,NNW,15.0,-,N/A,,Overcast,330,2014-03-03 20:35:00
3:55 PM,19.4,1.4,46,30.19,10.0,North,12.7,-,N/A,,Mostly Cloudy,350,2014-03-03 20:55:00
4:15 PM,19.4,-0.4,42,30.19,10.0,NNW,16.1,-,N/A,,Mostly Cloudy,340,2014-03-03 21:15:00
4:35 PM,19.4,1.4,46,30.19,10.0,NNW,13.8,-,N/A,,Clear,330,2014-03-03 21:35:00
4:55 PM,19.4,1.4,46,30.20,10.0,NNW,12.7,-,N/A,,Clear,330,2014-03-03 21:55:00
5:15 PM,19.4,1.4,46,30.22,10.0,NNW,10.4,-,N/A,,Clear,330,2014-03-03 22:15:00
5:35 PM,19.4,1.4,46,30.22,10.0,NW,10.4,-,N/A,,Clear,320,2014-03-03 22:35:00
5:55 PM,19.4,1.4,46,30.23,10.0,NNW,11.5,-,N/A,,Clear,330,2014-03-03 22:55:00
6:15 PM,19.4,1.4,46,30.23,10.0,NNW,10.4,-,N/A,,Clear,330,2014-03-03 23:15:00
6:35 PM,19.4,1.4,46,30.24,10.0,NNW,10.4,-,N/A,,Clear,330,2014-03-03 23:35:00
6:55 PM,17.6,-0.4,45,30.25,10.0,NNW,8.1,-,N/A,,Clear,330,2014-03-03 23:55:00
7:15 PM,17.6,-0.4,45,30.25,10.0,NNW,6.9,-,N/A,,Clear,330,2014-03-04 00:15:00
7:35 PM,15.8,-0.4,49,30.27,10.0,NNW,6.9,-,N/A,,Clear,330,2014-03-04 00:35:00
7:55 PM,15.8,-0.4,49,30.27,10.0,NW,6.9,-,N/A,,Clear,320,2014-03-04 00:55:00
8:15 PM,14.0,-0.4,53,30.27,10.0,NNW,5.8,-,N/A,,Clear,340,2014-03-04 01:15:00
8:35 PM,15.8,-0.4,49,30.28,10.0,NW,6.9,-,N/A,,Clear,320,2014-03-04 01:35:00
8:55 PM,14.0,-2.2,49,30.28,10.0,NNW,6.9,-,N/A,,Clear,330,2014-03-04 01:55:00
9:15 PM,14.0,-0.4,53,30.29,10.0,NW,5.8,-,N/A,,Clear,320,2014-03-04 02:15:00
9:35 PM,14.0,-0.4,53,30.30,10.0,NW,5.8,-,N/A,,Clear,310,2014-03-04 02:35:00
9:55 PM,12.2,-2.2,53,30.30,10.0,NW,4.6,-,N/A,,Clear,310,2014-03-04 02:55:00
10:15 PM,12.2,-2.2,53,30.30,10.0,NW,6.9,-,N/A,,Clear,320,2014-03-04 03:15:00
10:35 PM,12.2,-0.4,57,30.31,10.0,NW,5.8,-,N/A,,Clear,320,2014-03-04 03:35:00
10:55 PM,12.2,-2.2,53,30.31,10.0,NW,5.8,-,N/A,,Clear,320,2014-03-04 03:55:00
11:15 PM,10.4,-2.2,57,30.31,10.0,NW,6.9,-,N/A,,Clear,320,2014-03-04 04:15:00
11:35 PM,12.2,-2.2,53,30.31,10.0,NW,5.8,-,N/A,,Clear,320,2014-03-04 04:35:00
11:55 PM,12.2,-2.2,53,30.31,10.0,NW,5.8,-,N/A,,Clear,320,2014-03-04 04:55:00